Weather History for Daytona Beach, FL

Change the Weather History Date:

Wednesday, November 21, 2012

  Actual Average Record
Temperature  
Mean Temperature 60 °F 66 °F  
Max Temperature 68 °F 75 °F 84 °F (1996)
Min Temperature 52 °F 56 °F 30 °F (1937)
Degree Days  
Heating Degree Days 5 3  
Month to date heating degree days 57 36  
Since 1 July heating degree days 80 44  
Cooling Degree Days 0 3  
Month to date cooling degree days 34 91  
Year to date cooling degree days 3128 2887  
Growing Degree Days 10 (Base 50)    
Moisture  
Dew Point 52 °F    
Average Humidity 73    
Maximum Humidity 93    
Minimum Humidity 52    
Precipitation  
Precipitation T in 0.08 in 2.40 in (1959)
Month to date precipitation 0.77 1.94  
Year to date precipitation 40.30 46.24  
Sea Level Pressure  
Sea Level Pressure 30.05 in    
Wind  
Wind Speed 8 mph (NNW)    
Max Wind Speed 17 mph    
Max Gust Speed 24 mph    
Visibility 10 miles    
Events Rain    
T = Trace of Precipitation, MM = Missing Value Source: NWS Daily Summary

Daily Weather History Graph

Daily Weather History Graph

Search for Another Location

Airport:

Trip Planner

Search our weather history database for the weather conditions in past years. The results will help you decide how hot, cold, wet, or windy it might be!

Date:

Astronomy

Nov. 21, 2012 Rise Set
Actual Time 6:53 AM EST 5:27 PM EST
Civil Twilight 6:27 AM EST 5:52 PM EST
Nautical Twilight 5:58 AM EST 6:21 PM EST
Astronomical Twilight 5:30 AM EST 6:49 PM EST
Moon 1:17 PM EST (11/21) 12:39 AM EST (11/21)
Length of Visible Light 11h 24m
Length of Day
10h 34m
First Quarter, 61% of the Moon is Illuminated
Nov 21
First Quarter
Nov 28
Full
Dec 6
Last Quarter
Dec 13
New
Dec 20
First Quarter

Hourly Weather History & Observations

Time (EST) Temp. Dew Point Humidity Pressure Visibility Wind Dir Wind Speed Gust Speed Precip Events Conditions
12:53 AM 55.0 °F 53.1 °F 93% 30.03 in 10.0 mi Calm Calm - N/A   Scattered Clouds
1:53 AM 55.0 °F 53.1 °F 93% 30.02 in 10.0 mi NW 5.8 mph - N/A   Scattered Clouds
2:53 AM 55.0 °F 53.1 °F 93% 30.02 in 10.0 mi NW 5.8 mph - N/A   Mostly Cloudy
3:53 AM 57.0 °F 54.0 °F 89% 30.02 in 10.0 mi NW 5.8 mph - 0.00 in Rain Light Rain
4:53 AM 55.9 °F 53.1 °F 90% 30.02 in 10.0 mi NW 6.9 mph - 0.00 in   Partly Cloudy
5:53 AM 54.0 °F 52.0 °F 93% 30.03 in 10.0 mi NW 6.9 mph - N/A   Clear
6:53 AM 54.0 °F 52.0 °F 93% 30.05 in 10.0 mi NW 6.9 mph - N/A   Partly Cloudy
7:53 AM 55.9 °F 53.1 °F 90% 30.06 in 10.0 mi NW 6.9 mph - N/A   Scattered Clouds
8:53 AM 61.0 °F 55.9 °F 83% 30.07 in 10.0 mi North 9.2 mph - N/A   Scattered Clouds
9:53 AM 64.0 °F 55.9 °F 75% 30.08 in 10.0 mi NNW 6.9 mph - N/A   Scattered Clouds
10:53 AM 66.0 °F 52.0 °F 60% 30.08 in 10.0 mi North 15.0 mph 23.0 mph N/A   Mostly Cloudy
11:53 AM 66.0 °F 53.1 °F 63% 30.07 in 10.0 mi North 9.2 mph - N/A   Scattered Clouds
12:53 PM 68.0 °F 53.1 °F 59% 30.04 in 10.0 mi North 10.4 mph - N/A   Partly Cloudy
1:53 PM 68.0 °F 52.0 °F 56% 30.03 in 10.0 mi North 13.8 mph - N/A   Scattered Clouds
2:53 PM 66.0 °F 48.9 °F 54% 30.03 in 10.0 mi North 16.1 mph 23.0 mph N/A   Partly Cloudy
3:53 PM 64.9 °F 51.1 °F 61% 30.03 in 10.0 mi NNW 16.1 mph 20.7 mph N/A   Partly Cloudy
4:53 PM 62.1 °F 52.0 °F 70% 30.05 in 10.0 mi North 15.0 mph - N/A   Partly Cloudy
5:53 PM 59.0 °F 52.0 °F 78% 30.05 in 10.0 mi North 9.2 mph - N/A   Clear
6:53 PM 59.0 °F 50.0 °F 72% 30.06 in 10.0 mi North 4.6 mph - N/A   Clear
7:53 PM 55.9 °F 50.0 °F 80% 30.06 in 10.0 mi NNW 4.6 mph - N/A   Clear
8:53 PM 54.0 °F 51.1 °F 90% 30.07 in 10.0 mi WNW 4.6 mph - N/A   Clear
9:53 PM 53.1 °F 50.0 °F 89% 30.09 in 10.0 mi NW 6.9 mph - N/A   Clear
10:53 PM 53.1 °F 50.0 °F 89% 30.09 in 10.0 mi NNW 8.1 mph - N/A   Clear
11:53 PM 52.0 °F 48.9 °F 89% 30.08 in 10.0 mi NW 8.1 mph - N/A   Clear